Theta_e
347 347 345 345 343 342 342 344 346 345 346 344 344 346 346 346 346 346 344 345 340 334 335 337 342 344 343 341 341 336 334 334 329 333 336 337 337 340 340 335 345 347 347
349 347 346 346 343 340 340 341 345 345 345 344 344 345 346 346 346 346 344 347 343 340 338 339 343 348 342 341 340 338 337 337 334 331 335 337 338 339 341 342 345 349 348
349 347 346 345 343 341 340 339 342 345 345 345 345 345 345 346 347 346 348 347 346 345 344 343 343 340 338 339 339 339 340 342 340 335 334 336 338 338 340 342 343 346 351
350 349 345 345 344 343 342 340 341 341 343 344 345 344 345 346 346 347 346 344 345 344 345 344 343 343 342 341 340 340 340 337 337 337 336 335 336 338 338 337 336 338 340
348 348 348 347 346 345 343 342 341 340 342 343 343 340 340 344 347 345 347 345 344 344 346 346 345 346 345 343 342 338 337 338 337 334 332 332 333 332 333 335 335 336 337
346 348 350 347 344 345 344 344 342 341 341 341 340 342 339 339 338 339 344 342 345 344 343 344 346 346 344 340 339 337 338 338 335 333 332 331 332 332 334 335 334 331 328
346 347 348 347 343 343 344 344 342 341 342 340 340 340 339 338 333 335 340 343 342 342 343 343 342 347 343 345 340 337 336 336 338 338 335 334 333 335 335 333 333 331 331
339 344 346 345 345 343 343 344 344 343 341 341 341 341 339 339 333 333 336 341 342 343 343 343 341 341 342 343 341 341 342 342 339 339 339 339 339 340 339 337 335 332 332
336 342 344 343 345 343 343 342 343 343 342 342 342 341 341 342 330 330 332 339 339 340 342 342 342 341 336 331 340 339 339 341 339 332 333 333 332 331 336 337 333 329 325
335 339 342 344 344 345 344 343 344 344 343 343 342 343 339 342 329 327 330 339 336 337 338 340 333 339 331 326 339 339 336 336 337 337 336 334 333 334 333 337 333 328 324
336 339 339 339 344 346 345 344 344 344 344 343 342 343 344 342 341 325 323 338 340 337 337 336 337 327 322 319 324 340 337 335 335 334 331 327 327 328 331 332 332 331 326
336 337 334 335 340 348 345 343 344 344 342 342 342 342 345 346 331 323 321 327 333 339 338 339 336 323 316 315 318 326 323 328 331 327 323 322 323 324 325 327 327 331 332
334 332 331 332 335 338 343 342 341 342 343 341 342 342 342 345 345 325 320 320 323 338 340 333 323 316 312 315 318 320 321 329 325 322 321 321 323 326 326 325 326 326 327
332 329 329 330 329 332 339 342 342 341 341 341 340 341 342 343 345 343 335 326 322 327 328 329 325 323 321 323 320 322 327 324 323 322 322 323 324 324 322 322 322 322 321
326 329 328 328 328 330 330 328 338 328 327 339 338 339 338 338 339 331 330 332 331 328 327 326 326 324 324 323 321 322 320 321 322 323 323 323 323 321 321 321 321 319 318
321 326 326 326 325 328 332 327 316 312 315 315 311 322 328 314 313 307 307 309 309 312 326 325 325 327 325 324 322 322 322 324 323 323 322 322 320 320 319 322 319 317 316
319 323 324 322 325 327 330 329 323 318 310 309 308 309 312 312 310 308 304 304 306 315 329 330 330 328 328 325 323 323 323 322 322 322 321 320 319 319 320 322 321 318 316
315 315 322 324 328 325 326 326 327 323 324 324 312 310 306 306 310 303 306 308 316 319 328 330 329 327 325 324 324 322 320 319 320 320 319 319 318 317 314 314 314 314 315
315 320 324 324 327 324 325 325 325 325 322 324 324 312 306 299 300 302 303 324 326 329 329 327 328 326 324 324 323 320 319 319 318 317 317 317 316 315 313 314 314 311 313
314 320 323 326 328 327 327 327 327 326 325 325 322 320 317 313 318 316 314 321 332 331 331 331 325 324 324 323 321 319 317 317 317 317 316 316 315 315 315 318 319 318 317
316 323 325 326 328 325 325 326 326 327 326 324 322 321 311 319 322 322 320 323 330 332 329 328 325 324 322 320 320 320 319 318 317 315 314 314 314 314 317 319 319 317 316
318 323 321 322 323 323 323 324 324 325 325 324 322 322 303 323 324 324 324 326 331 331 330 328 325 323 323 323 322 321 318 317 315 315 314 314 315 315 319 318 317 316 315
324 324 321 320 321 318 323 326 326 324 324 323 323 324 316 321 324 327 326 327 329 328 326 326 324 323 323 324 324 323 320 317 317 317 315 314 313 314 314 314 315 312 310
325 323 321 320 321 322 325 327 327 317 324 324 324 325 325 323 323 326 330 329 328 328 327 326 325 325 324 323 323 321 320 318 318 318 317 316 314 310 311 310 310 310 309
326 322 321 321 323 324 325 327 328 327 327 330 326 326 326 328 327 329 332 330 329 328 328 326 326 326 325 324 322 320 310 301 316 309 317 316 315 313 312 311 310 310 310
327 324 323 325 324 325 324 325 326 328 330 331 331 329 328 328 330 332 332 330 329 328 327 327 326 326 325 325 324 310 293 293 304 298 317 316 315 313 313 313 313 312 312
Wind_Speed
10 8 9 9 7 6 6 7 7 6 5 6 5 5 6 6 6 5 5 5 6 5 4 5 5 5 4 3 3 3 4 3 3 4 3 2 3 4 5 4 4 4 4
11 8 11 9 7 7 7 7 6 6 5 6 5 5 6 7 6 7 7 6 7 6 6 7 6 4 5 3 3 4 3 4 4 5 2 2 4 2 4 5 5 4 4
8 9 8 9 8 9 9 7 8 8 7 6 6 6 6 8 8 8 7 7 6 6 6 6 6 5 4 3 3 3 3 3 3 3 4 1 2 1 3 2 3 3 3
8 9 9 10 11 10 9 8 10 8 7 7 6 6 7 7 7 7 6 5 6 6 6 6 6 6 6 6 5 6 5 4 3 4 3 2 1 2 0 1 3 1 3
8 10 13 12 10 9 9 9 8 8 9 8 7 7 6 6 6 7 7 8 7 6 6 6 6 7 10 8 5 6 4 3 3 3 2 1 2 2 3 1 2 2 3
8 12 13 7 9 10 11 10 8 9 8 7 7 8 7 6 8 10 9 6 7 7 7 6 6 7 6 9 11 8 7 5 4 3 3 4 4 3 2 2 2 1 2
7 8 9 8 8 10 10 10 10 10 9 10 9 8 9 9 12 12 13 6 6 7 7 6 5 5 7 6 6 7 7 9 7 4 5 5 3 5 3 2 3 2 3
6 8 7 10 10 9 11 13 12 10 11 10 10 10 9 8 14 15 13 7 5 6 7 8 7 7 7 7 5 5 6 5 6 5 6 5 5 4 5 4 4 3 2
6 6 6 7 11 9 13 14 13 11 10 12 12 12 12 10 14 15 9 7 6 7 6 7 8 7 8 9 6 6 6 6 3 8 8 8 7 8 5 2 3 2 2
6 6 6 6 9 13 12 11 11 10 12 9 12 12 15 13 14 15 12 5 6 6 6 6 9 9 9 9 6 6 5 6 4 4 1 2 4 5 3 6 3 4 2
7 6 5 4 7 11 11 11 11 11 10 10 11 11 12 13 11 17 15 7 7 5 6 5 5 11 11 11 11 7 8 5 5 4 1 2 3 4 4 4 5 4 3
6 7 6 5 4 5 9 10 10 10 12 12 11 9 9 10 12 14 16 17 11 8 7 6 5 10 7 7 6 10 9 7 4 2 1 1 2 3 4 3 3 4 4
7 7 7 5 5 5 5 8 7 9 9 10 11 10 9 7 7 13 17 16 12 9 6 6 5 5 3 3 8 8 9 4 4 2 3 2 3 3 3 3 2 3 3
8 7 6 6 4 2 5 7 7 5 6 7 9 10 9 8 9 8 8 8 8 7 5 4 4 5 4 5 5 5 3 4 4 4 3 3 2 1 1 1 1 2 1
8 8 6 5 4 3 1 4 5 6 5 10 3 4 4 5 5 7 10 8 7 9 8 3 3 3 3 3 2 3 4 4 4 4 3 3 3 2 2 1 1 1 2
8 7 6 4 4 2 4 4 9 8 25 22 4 6 6 9 12 6 14 11 13 17 4 4 5 5 6 5 5 4 4 6 5 4 4 4 3 3 2 1 2 2 2
7 9 5 5 4 3 5 8 8 5 11 20 26 25 15 10 5 6 6 15 12 13 4 7 7 7 7 5 5 5 4 4 5 5 4 4 3 2 3 3 2 1 1
8 13 7 6 6 4 5 6 6 7 9 7 10 7 15 19 20 6 10 10 5 7 5 6 7 7 6 6 6 5 4 4 4 5 4 4 4 3 2 2 2 2 2
8 7 8 7 6 6 5 6 6 4 4 4 3 3 4 4 13 18 20 10 12 12 7 6 6 6 5 5 5 5 6 6 4 5 4 4 4 4 3 3 3 4 2
9 16 10 8 6 7 7 8 8 6 6 6 5 2 3 1 4 2 7 10 9 8 8 8 6 5 5 6 5 5 5 5 5 4 4 4 4 4 4 4 4 3 3
7 8 13 8 7 6 7 9 11 9 7 7 6 5 9 4 4 7 9 11 8 7 8 8 7 6 5 5 6 7 6 5 5 5 5 5 4 3 3 4 4 4 3
9 8 6 8 7 7 8 9 8 9 10 9 6 5 13 5 3 6 6 8 8 8 7 8 7 7 7 8 8 7 6 6 5 5 5 5 5 5 4 3 3 3 3
10 9 6 6 6 6 6 6 6 7 8 8 6 7 6 7 6 6 7 6 7 7 6 6 7 6 5 6 6 7 8 7 7 7 5 4 5 4 4 4 4 3 3
6 6 7 6 6 6 5 5 6 8 7 7 8 9 8 7 7 8 7 6 6 6 6 6 7 10 8 7 6 5 4 5 6 7 8 6 5 6 4 4 5 5 4
5 6 6 7 6 6 5 5 6 7 6 4 8 9 10 8 8 7 7 6 6 7 7 7 7 10 12 11 9 9 8 12 9 10 5 7 8 8 5 4 3 3 4
5 5 5 5 5 5 3 4 4 4 4 3 3 3 7 8 8 8 7 7 7 7 9 8 9 12 12 10 12 12 11 12 9 10 7 5 6 5 5 5 7 4 4
Wind_Direction
200 202 191 205 201 193 194 195 204 181 189 184 195 187 189 200 201 190 210 209 203 195 183 196 231 224 219 207 179 171 184 169 205 297 239 258 274 269 293 289 241 284 290
205 193 202 197 189 192 205 192 173 187 181 201 201 208 193 202 207 200 195 210 208 200 205 212 219 181 224 228 199 208 202 192 174 248 277 288 228 263 257 297 323 321 311
206 199 201 198 194 209 210 191 180 187 189 201 201 208 208 210 204 203 203 205 214 216 213 204 224 194 197 201 209 212 216 215 209 222 263 286 299 8 331 324 303 329 323
201 197 202 208 207 202 217 200 187 189 196 195 205 211 219 216 205 198 193 196 212 225 222 216 218 201 217 224 218 216 195 201 218 229 251 261 224 296 251 252 303 285 303
237 203 217 205 212 192 202 212 202 191 202 195 193 203 212 216 210 190 197 196 204 218 230 231 230 222 211 211 190 225 208 220 210 223 244 276 277 290 230 241 254 280 284
251 229 232 196 204 199 200 203 199 200 198 194 205 208 197 216 225 210 199 199 200 207 225 235 238 242 244 237 225 235 208 201 234 189 219 223 244 231 218 222 219 276 314
283 257 236 222 200 204 202 198 212 200 189 199 205 199 212 205 216 222 219 210 208 213 213 223 240 234 225 241 242 245 234 225 227 207 226 223 238 228 193 226 230 211 236
314 272 235 224 220 201 191 201 203 204 201 195 204 210 211 215 205 213 214 216 220 223 215 217 204 225 217 214 224 244 256 256 230 214 217 237 223 245 209 203 204 204 280
313 323 283 240 234 212 207 208 206 192 202 206 205 203 204 215 202 210 194 200 208 224 223 222 211 220 216 210 205 223 249 257 219 228 241 258 277 266 237 168 228 155 272
289 293 294 253 238 237 219 209 208 206 203 200 209 207 209 213 200 204 198 193 202 212 219 224 213 223 217 214 200 209 229 247 184 198 207 314 329 306 265 211 166 201 206
272 263 280 282 258 244 233 220 204 205 211 198 205 210 211 211 205 199 191 190 206 209 224 228 220 211 218 220 208 197 213 179 188 174 209 289 299 294 280 238 211 191 206
272 272 277 274 274 264 242 225 222 200 199 204 204 212 214 214 211 202 189 200 187 195 215 227 225 202 221 240 204 234 167 153 151 148 208 290 305 297 280 270 252 224 218
267 266 278 275 271 267 254 236 232 223 210 212 199 210 221 213 217 203 199 199 197 201 208 207 200 180 174 203 207 184 154 158 148 168 219 224 216 249 295 310 282 252 262
278 271 278 290 299 300 264 279 208 199 247 231 219 211 203 203 210 207 211 204 193 197 158 148 166 162 173 134 139 154 162 166 173 195 210 217 237 233 237 167 294 322 298
281 272 261 264 290 307 83 281 220 161 139 290 252 213 221 220 269 240 179 181 194 190 144 126 171 169 184 189 177 180 176 169 191 191 199 222 227 196 212 160 209 230 234
276 271 254 258 264 225 161 75 359 132 116 116 220 152 140 126 49 7 286 195 167 154 141 167 193 191 198 195 192 205 195 199 210 185 196 196 198 189 191 188 190 190 234
249 266 254 232 243 198 187 163 152 216 246 169 169 152 133 133 82 5 284 279 184 164 167 192 197 195 205 201 195 184 203 207 167 169 177 189 175 165 168 184 157 154 162
242 254 254 232 231 212 187 206 188 182 197 198 256 250 157 154 142 163 210 179 215 232 182 179 199 194 193 190 189 191 186 166 168 164 172 175 172 159 165 196 197 185 194
235 244 234 229 216 207 203 203 209 199 220 220 209 266 343 87 120 134 155 207 211 205 190 189 197 186 180 179 187 181 173 174 159 159 178 171 174 157 180 188 208 204 169
240 238 217 217 209 203 221 221 217 223 233 240 232 289 151 313 156 175 165 204 201 196 186 196 188 166 177 186 181 158 147 161 169 164 170 173 174 173 188 181 174 188 197
236 233 208 215 210 206 221 238 239 243 246 249 240 179 174 204 228 177 171 200 200 185 182 186 172 174 178 168 162 168 171 164 161 162 170 174 166 178 195 171 160 175 160
237 233 194 194 199 216 226 234 241 248 251 244 233 201 164 187 207 161 220 195 194 192 183 179 169 170 178 174 168 161 163 167 163 169 171 171 168 167 167 154 159 164 163
224 217 194 179 181 195 204 216 221 228 237 233 216 205 177 192 181 200 198 208 198 175 166 160 153 158 161 163 167 163 166 179 178 161 163 170 166 157 151 151 165 181 183
218 204 189 177 181 203 212 233 228 227 225 228 222 207 202 190 197 202 197 187 177 172 162 152 159 167 166 165 164 163 161 153 154 166 162 163 165 157 160 161 159 169 179
206 200 190 180 183 198 221 234 237 223 219 249 218 211 215 199 193 201 188 169 172 167 168 163 167 170 169 164 166 169 175 162 157 160 160 161 163 165 163 155 160 172 172
194 184 182 181 178 200 218 222 217 221 238 259 237 199 179 191 181 186 171 166 169 169 171 172 170 168 166 175 172 171 168 176 162 162 151 151 159 165 173 169 182 181 189